Regional Weather Roundup
Issued by NWS

Home | Current Version | Previous Version | Graphics & Text | Print | Product List | Glossary On
Versions: 1 2 3 4 5 6 7 8 9 10 11 12 13 14 15 16 17 18 19 20 21 22 23 24 25 26 27 28 29 30 31 32 33 34 35 36 37 38 39 40 41 42 43 44 45 46 47 48 49 50
000
ASUS43 KMPX 161710
RWRMN
WEATHER ROUNDUP FOR MINNESOTA
NATIONAL WEATHER SERVICE TWIN CITIES/CHANHASSEN MN
1100 AM CST TUE JAN 16 2018


NOTE: "FAIR" INDICATES FEW OR NO CLOUDS BELOW 12,000 FEET WITH NO
SIGNIFICANT WEATHER AND/OR OBSTRUCTIONS TO VISIBILITY. N/A MEANS
CURRENT SKY AND/OR WEATHER CONDITIONS ARE NOT AVAILABLE.

MNZ060>063-068>070-161800-
   Twin Cities Metro

CITY           SKY/WX    TMP DP  RH WIND       PRES   REMARKS
TWIN CITIES    FAIR       2  -4  76 NW7       30.69F WCI -11
ST PAUL        FAIR       2  -5  72 NW7       30.71F WCI -11
CRYSTAL        FAIR       1  -8  66 W7        30.69S WCI -12
BLAINE         SUNNY      3  -4  72 NW3       30.67S
LAKEVILLE      FAIR       1  -4  78 W7        30.68S WCI -11
EDEN PRAIRIE   CLOUDY     2  -5  72 VRB6      30.68F WCI  -9
SOUTH ST PAUL  FAIR       4  -4  71 NW6       30.69S WCI  -7
LAKE ELMO      FAIR       3   0  85 W7        30.68F WCI  -9
$$
MNZ001>005-007-008-013>017-022>024-027-028-161800-
   Northwest Minnesota

CITY           SKY/WX    TMP DP  RH WIND       PRES   REMARKS
BEMIDJI        FAIR      -8 -12  80 W3        30.62F
HALLOCK        FAIR      -8 -13  77 S16       30.62F WCI -30
ROSEAU         FAIR      -8 -15  71 S8        30.60F WCI -23
WARROAD        FAIR      -8 -15  71 SW5       30.60F WCI -19
THIEF RVR FALL FAIR     -11 -18  71 SW8       30.66F WCI -28
CROOKSTON      FAIR      -8 -15  71 S12       30.71S WCI -27
FOSSTON        FAIR     -11 -18  70 S9        30.66S WCI -29
DETROIT LAKES  FAIR      -9 -15  77 CALM      30.66F
MOORHEAD       FAIR      -9 -18  64 CALM      30.74S
PARK RAPIDS    FAIR      -9 -14  78 W7        30.62F WCI -24
MAHNOMEN       FAIR     -13 -18  79 S8        30.67F WCI -30
$$
MNZ006-009>011-018-025>026-161800-
   North Central Minnesota

CITY           SKY/WX    TMP DP  RH WIND       PRES   REMARKS
BAUDETTE       PTSUNNY   -8 -14  74 CALM      30.59F
FLAG ISLAND    FAIR      -6 -15  65 S6        30.56F WCI -18
INTL FALLS     FAIR      -6 -12  75 W7        30.60F WCI -20
WASKISH        FAIR      -9 -15  77 W5        30.62S WCI -21
BIG FORK       FAIR      -2  -8  78 SW5       30.60F WCI -12
LONGVILLE      FAIR      -6  -9  84 W5        30.63S WCI -17
GRAND RAPIDS   CLOUDY     1  -3  83 NW7       30.62F WCI -12
CRANE LAKE     CLOUDY    -2  -6  84 SW5       30.62F WCI -12
ORR            CLOUDY    -2  -8  78 W3        30.56F
COOK           CLOUDY    -2  -6  84 W5        30.59F WCI -12
WALKER         FAIR      -6 -10  81 NW5       30.62F WCI -17
$$
MNZ012-019>021-037-161800-
   Northeast Minnesota

CITY           SKY/WX    TMP DP  RH WIND       PRES   REMARKS
DULUTH         FAIR       1  -2  87 NW8       30.55F WCI -13
ELY            FLURRIES   0  -4  85 W5        30.56F WCI -10
HIBBING        FAIR      -3  -7  82 NW8       30.59F WCI -18
EVELETH        FAIR       0  -8  71 W7        30.58F WCI -13
DULUTH HARBOR  FAIR       5  -2  72 W6        30.66S WCI  -6
TWO HARBORS    FAIR      12   1  62 W5        30.55F WCI   4
SILVER BAY     FAIR      10   1  67 CALM      30.53F
GRAND MARAIS     N/A     16   4  59 NW6       30.56F WCI   7
G MARAIS ARPRT FAIR       7  -2  66 CALM      30.46F
$$
MNZ029>031-032-039>041-046>048-054>057-064-161800-
   West Central Minnesota

CITY           SKY/WX    TMP DP  RH WIND       PRES   REMARKS
FERGUS FALLS   FAIR     -11 -17  77 NW3       30.76F
WHEATON        CLOUDY    -6 -17  59 NW5       30.77S WCI -17
MORRIS         CLOUDY    -6 -15  65 NW8       30.72S WCI -21
ALEXANDRIA     FAIR      -5 -11  75 NW7       30.66S WCI -19
ELBOW LAKE     FAIR     -10 -15  78 NW6       30.72S WCI -23
WADENA         FAIR      -8 -15  71 W7        30.66S WCI -22
GLENWOOD       FAIR      -6  -9  84 NW8       30.68S WCI -21
APPLETON       CLOUDY    -6 -13  71 NW8       30.75S WCI -21
BENSON         CLOUDY    -6 -13  71 N10       30.73S WCI -23
ORTONVILLE     CLOUDY    -6 -15  65 NW8       30.74S WCI -21
MADISON          N/A     -4 -11  71 NW9       30.75S WCI -20
WILLMAR        FAIR      -6 -11  77 NW9       30.72F WCI -22
$$
MNZ033>034-036-042>043-049>051-058-059-161800-
   Central Minnesota

CITY           SKY/WX    TMP DP  RH WIND       PRES   REMARKS
ST CLOUD       CLOUDY    -2  -8  76 NW7       30.68S WCI -15
SAUK CENTRE      N/A     -6 -12  74 NW6       30.68F WCI -18
PAYNESVILLE    FAIR      -4  -9  77 NW8       30.70S WCI -19
AITKIN         CLOUDY    -4  -9  77 NW3       30.62
PINE RIVER     FAIR      -4  -9  77 NW3       30.65F
BRAINERD       PTSUNNY   -2  -8  76 NW5       30.64F WCI -12
STAPLES        FAIR      -9 -15  77 NW6       30.65S WCI -23
LONG PRAIRIE   FAIR      -4  -9  77 W7        30.66F WCI -18
LITTLE FALLS   FAIR      -4 -13  65 W3        30.67F
LITCHFIELD     FAIR      -2  -9  71 W7        30.69F WCI -16
BUFFALO        FAIR      -1  -7  76 W6        30.70F WCI -12
MAPLE LAKE     FAIR       0  -6  78 MISG      30.69F
HUTCHINSON     FAIR      -3 -10  74 W8        30.70F WCI -18
$$
MNZ037-044-045-052-053-161800-
   East Central Minnesota

CITY           SKY/WX    TMP DP  RH WIND       PRES   REMARKS
PRINCETON      FAIR       1  -6  71 W5        30.67S WCI  -8
MORA           FAIR       3  -4  72 NW5       30.67S WCI  -6
CAMBRIDGE        N/A      1  -6  71 W6        30.68S WCI -10
RUSH CITY      FAIR       2  -5  72 NW3       30.67S
MOOSE LAKE     FAIR       3  -4  72 W5        30.61F WCI  -6
HINCKLEY       FAIR       3  -2  78 W5        30.65R WCI  -6
CLOQUET        FAIR       1  -4  78 W5        30.58F WCI  -8
MCGREGOR       FAIR       1  -4  78 NW5       30.62F WCI  -8
$$
MNZ071>073-080-081-089-090-097-098-161800-
   Southwest Minnesota

CITY           SKY/WX    TMP DP  RH WIND       PRES   REMARKS
MONTEVIDEO     CLOUDY     0  -8  71 N6        30.74S WCI -12
GRANITE FALLS  CLOUDY    -3 -10  74 W12       30.76F WCI -21
CANBY          CLOUDY    -1  -8  72 NW5       30.74F WCI -11
MARSHALL       CLOUDY    -5 -11  75 NW12      30.73F WCI -23
REDWOOD FALLS  CLOUDY    -4 -11  72 NW9       30.73S WCI -20
OLIVIA         SUNNY     -2  -9  71 NW12      30.72S WCI -20
PIPESTONE      SUNNY     -2  -8  78 NW8       30.66S WCI -17
WINDOM         PTSUNNY   -6 -18  54 NW10      30.68S WCI -23
WORTHINGTON    CLOUDY    -1  -8  72 NW9       30.68S WCI -16
JACKSON        SUNNY     -4  -9  77 NW9       30.68S WCI -20
SLAYTON        PTSUNNY   -4  -7  84 NW10      30.67F WCI -21
$$
MNZ065>067-074>077-082>085-091>093-161800-
   South Central Minnesota

CITY           SKY/WX    TMP DP  RH WIND       PRES   REMARKS
MANKATO        CLOUDY    -3  -9  75 NW10      30.72R HAZE    WCI -20
NEW ULM        CLOUDY    -4 -11  71 NW8       30.72S WCI -19
ST JAMES       FLURRIES  -2  -8  78 NW13      30.73S WCI -21
FAIRMONT       CLOUDY    -3  -9  75 NW13      30.71S WCI -22
GLENCOE        PTSUNNY   -2  -8  78 W6        30.70S HAZE    WCI -14
FARIBAULT      CLOUDY     0  -6  78 W8        30.68S WCI -15
OWATONNA       CLOUDY    -2  -6  84 W10       30.67S WCI -19
WASECA         CLOUDY     0  -4  85 W9        30.70S WCI -16
ALBERT LEA     CLOUDY    -2  -8  78 NW7       30.66R HAZE    WCI -16
$$
MNZ078>079-086>088-094>096-161800-
   Southeast Minnesota

CITY           SKY/WX    TMP DP  RH WIND       PRES   REMARKS
ROCHESTER      CLOUDY     4   1  88 NW14      30.61S BLWGSNOWWCI -14
RED WING       LGT SNOW   7   0  72 W6        30.67S WCI  -3
STANTON        CLOUDY     4  -2  76 NW9       30.68R WCI -11
DODGE CENTER   CLOUDY     1  -2  85 NW12      30.62S HAZE    WCI -15
WINONA         CLOUDY    10   5  79 N13         N/A  WCI  -5
AUSTIN         CLOUDY     0  -6  78 NW12G18   30.64S FOG     WCI -18
PRESTON        LGT SNOW   5   1  81 NW10      30.60S WCI -10
$$
ABBREVIATIONS USED IN REMARKS
   TC - TEMPERATURES IN CELSIUS
  WCI - WIND CHILL INDEX
   HX - HEAT INDEX
  VSB - VISIBILITY
$$



USA.gov is the U.S. government's official web portal to all federal, state and local government web resources and services.